This demonstration page uses our WeatherBlox Daily Observations layout. Learn more.

Left ArrowRight Arrow

Hourly Observations for October 1, 2018

Temp ( °F °C ) Dew Point ( °F °C ) Humidity (%) Winds ( mph kmh ) Pressure ( in mb ) Visibility ( mi km ) Precip ( " mm )
12:51 am 00:51 Cloudy 76 24.4 60 15.6 58 58 WNW 10 17 29.83 1010 10 16 0.00 0.00
1:51 am 01:51 Mostly Cloudy 76 24.4 59 15 56 56 WNW 13 20 29.81 1010 10 16 0.00 0.00
2:51 am 02:51 Mostly Cloudy 74 23.3 59 15 60 60 WNW 8 13 29.81 1010 10 16 0.00 0.00
3:51 am 03:51 Mostly Cloudy 74 23.3 58 14.4 57 57 W 8 13 29.80 1009 10 16 0.00 0.00
4:51 am 04:51 Mostly Clear 72 22.2 58 14.4 61 61 N 5 7 29.83 1010 10 16 0.00 0.00
5:51 am 05:51 Cloudy 72 22.2 59 15 64 64 WNW 7 11 29.85 1011 10 16 0.00 0.00
6:51 am 06:51 Partly Cloudy 73 22.8 58 14.4 59 59 NW 6 9 29.86 1011 10 16 0.00 0.00
7:51 am 07:51 Mostly Sunny 74 23.3 59 15 60 60 WNW 7 11 29.88 1012 10 16 0.00 0.00
8:51 am 08:51 Mostly Sunny 76 24.4 60 15.6 58 58 WNW 12 19 29.90 1013 10 16 0.00 0.00
9:51 am 09:51 Partly Cloudy 78 25.6 60 15.6 54 54 WNW 10 17 29.91 1013 10 16 0.00 0.00
10:51 am 10:51 Sunny 80 26.7 59 15 49 49 WNW 16 26 29.90 1012 10 16 0.00 0.00
11:51 am 11:51 Mostly Sunny 82 27.8 58 14.4 44 44 WNW 10 17 29.88 1012 10 16 0.00 0.00
12:51 pm 12:51 Mostly Sunny 81 27.2 58 14.4 45 45 W 12 19 29.85 1011 10 16 0.00 0.00
1:51 pm 13:51 Mostly Sunny 80 26.7 59 15 49 49 WNW 14 22 29.83 1010 10 16 0.00 0.00
2:31 pm 14:31 Cloudy with Nearby Thunderstorms 79 26.1 61 16.1 54 54 WNW 16 26 29.80 1009 10 16 0.00 0.00
2:48 pm 14:48 Cloudy 79 26 61 16 54 54 WNW 20 31 29.80 1009 10 16 0.00 0.00
2:51 pm 14:51 Cloudy with Nearby Thunderstorms 77 25 61 16.1 58 58 WNW 21 33 29.85 1011 10 16 0.00 0.00
3:11 pm 15:11 Cloudy 75 23.9 62 16.7 64 64 WNW 25 41 29.83 1010 10 16 0.00 0.00
3:51 pm 15:51 Cloudy with Light Rain 69 20.6 66 18.9 90 90 WNW 20 31 29.90 1012 10 16 0.00 0.03
4:39 pm 16:39 Mostly Cloudy 68 20 68 20 100 100 W 16 26 29.85 1011 10 16 0.04 1.02
4:48 pm 16:48 Mostly Sunny 68 20 66 19 94 94 W 17 28 29.85 1011 10 16 0.00 0.00
4:51 pm 16:51 Mostly Sunny 68 20 67 19.4 96 96 W 16 26 29.87 1012 10 16 0.04 1.02
5:51 pm 17:51 Sunny 68 20 67 19.4 96 96 NW 8 13 29.89 1012 10 16 0.00 0.00
6:51 pm 18:51 Mostly Clear 68 20 67 19.4 96 96 WNW 3 6 29.88 1012 10 16 0.00 0.00
7:51 pm 19:51 Mostly Clear 69 20.6 67 19.4 93 93 Calm 29.89 1012 10 16 0.00 0.00
8:51 pm 20:51 Clear 68 20 67 19.4 96 96 SE 3 6 29.89 1012 10 16 0.00 0.00
9:51 pm 21:51 Clear 67 19.4 66 18.9 97 97 Calm 29.89 1012 10 16 0.00 0.00
10:51 pm 22:51 Clear 66 18.9 66 18.9 100 100 E 5 7 29.89 1012 10 16 0.00 0.00
11:51 pm 23:51 Clear 67 19.4 66 18.9 97 97 ESE 7 11 29.87 1011 10 16 0.00 0.00

Powered by AerisWeather